WE3WEE Weather Reports


time (UTC)temp
F
wind
direction
speed
knots
gust
knots
rain 1hr
in
rain 24hr
in
rain mn
in
humidity
%
barometer
mb
20260504190514 69 172 4.3 8.7 0.00 0.00 0.00 43 1009.6
20260504190010 69 239 8.7 13.0 0.00 0.00 0.00 42 1009.6
20260504185507 69 227 0.0 0.0 0.00 0.00 0.00 49 1009.6
20260504185004 69 238 9.6 11.3 0.00 0.00 0.00 47 1009.6
20260504184459 69 224 0.0 0.0 0.00 0.00 0.00 45 1009.6
20260504183954 69 223 2.6 5.2 0.00 0.00 0.00 48 1009.6
20260504183452 68 267 1.7 7.0 0.00 0.00 0.00 48 1009.6
20260504182950 69 199 6.1 6.1 0.00 0.00 0.00 49 1009.6
20260504182446 68 200 8.7 14.8 0.00 0.00 0.00 46 1009.6
20260504181944 67 248 1.7 4.3 0.00 0.00 0.00 46 1009.6
20260504181441 67 225 9.6 11.3 0.00 0.00 0.00 45 1010.6
20260504180939 67 227 0.0 0.0 0.00 0.00 0.00 48 1010.6
20260504180438 67 227 7.8 8.7 0.00 0.00 0.00 46 1010.6
20260504175936 67 238 0.0 3.5 0.00 0.00 0.00 50 1010.6
20260504175433 68 169 1.7 6.1 0.00 0.00 0.00 47 1010.6
20260504174930 67 175 0.0 0.0 0.00 0.00 0.00 46 1010.6
20260504174427 67 181 0.0 3.5 0.00 0.00 0.00 50 1010.6
20260504173925 67 226 7.8 11.3 0.00 0.00 0.00 47 1010.6
20260504173421 66 224 0.0 0.0 0.00 0.00 0.00 52 1010.6
20260504172919 67 248 11.3 14.8 0.00 0.00 0.00 50 1010.6
20260504172415 67 0 0.0 0.0 0.00 0.00 0.00 49 1010.6
20260504171911 66 204 4.3 8.7 0.00 0.00 0.00 46 1010.6
20260504171409 66 236 0.0 0.0 0.00 0.00 0.00 48 1010.6
20260504170905 65 225 3.5 5.2 0.00 0.00 0.00 47 1010.6
20260504170402 65 237 1.7 7.8 0.00 0.00 0.00 52 1010.6
20260504160321 63 223 0.0 1.7 0.00 0.00 0.00 47 1011.7
20260504150745 61 255 0.0 0.0 0.00 0.00 0.00 51 1011.7
20260504150242 61 198 7.8 9.6 0.00 0.00 0.00 49 1011.7
20260504141212 58 223 8.7 8.7 0.00 0.00 0.00 50 1012.8
20260504140709 58 203 0.0 0.0 0.00 0.00 0.00 50 1012.8
20260504140203 58 317 0.0 0.0 0.00 0.00 0.00 50 1012.8
20260504130632 52 223 0.0 0.0 0.00 0.00 0.00 58 1012.8
20260504130129 51 238 0.0 0.0 0.00 0.00 0.00 60 1012.8
20260504110520 42 312 0.0 0.0 0.00 0.00 0.00 78 1012.8
20260504100437 35 313 0.0 0.0 0.00 0.00 0.00 89 1012.8
20260504081830 38 313 0.0 0.0 0.00 0.00 0.00 85 1013.8
20260504081326 39 313 0.0 0.0 0.00 0.00 0.00 82 1013.8
20260504080822 40 333 0.0 0.0 0.00 0.00 0.00 78 1013.8
20260504080320 40 333 0.0 0.0 0.00 0.00 0.00 77 1013.8
20260504070247 41 333 0.0 0.0 0.00 0.00 0.00 74 1013.8
20260504060202 39 292 0.0 0.0 0.00 0.00 0.00 80 1012.8
20260504050630 39 218 0.0 0.0 0.00 0.00 0.00 83 1013.8
20260504050127 39 218 0.0 0.0 0.00 0.00 0.00 81 1012.8
20260504045623 39 218 0.0 0.0 0.00 0.00 0.00 81 1012.8
20260504045118 39 218 0.0 0.0 0.00 0.00 0.00 81 1012.8
20260504044617 39 218 0.0 0.0 0.00 0.00 0.00 81 1012.8
20260504044113 39 218 0.0 0.0 0.00 0.00 0.00 82 1012.8
20260504043610 39 218 0.0 0.0 0.00 0.00 0.00 82 1012.8
20260504043108 40 218 0.0 0.0 0.00 0.00 0.00 81 1012.8
20260504042605 40 218 0.0 0.0 0.00 0.00 0.00 80 1013.8
20260504042101 40 218 0.0 0.0 0.00 0.00 0.00 80 1013.8
20260504041557 40 218 0.0 0.0 0.00 0.00 0.00 79 1013.8
20260504041054 40 218 0.0 0.0 0.00 0.00 0.00 78 1012.8
20260504040551 40 218 0.0 0.0 0.00 0.00 0.00 78 1012.8
20260504040047 40 218 0.0 0.0 0.00 0.00 0.00 77 1012.8
20260504035544 41 218 0.0 0.0 0.00 0.00 0.00 77 1012.8
20260504035041 41 218 0.0 0.0 0.00 0.00 0.00 77 1012.8
20260504034539 42 218 0.0 0.0 0.00 0.00 0.00 75 1012.8
20260504034035 42 218 0.0 0.0 0.00 0.00 0.00 74 1012.8
20260504033533 42 218 0.0 0.0 0.00 0.00 0.00 73 1012.8
20260504033030 43 218 0.0 0.0 0.00 0.00 0.00 72 1012.8
20260504032527 43 218 0.0 0.0 0.00 0.00 0.00 71 1012.8
20260504032024 44 0 0.0 0.0 0.00 0.00 0.00 69 1012.8
20260504031521 44 218 0.0 0.0 0.00 0.00 0.00 67 1012.8
20260504031017 45 218 0.0 0.0 0.00 0.00 0.00 67 1012.8
20260504030515 45 218 0.0 0.0 0.00 0.00 0.00 65 1012.8
20260504030011 46 218 0.0 0.0 0.00 0.00 0.00 64 1012.8
20260504025508 46 218 0.0 0.0 0.00 0.00 0.00 64 1012.8
20260504025005 46 218 0.0 0.0 0.00 0.00 0.00 61 1012.8
20260504024502 47 218 0.0 0.0 0.00 0.00 0.00 61 1012.8
20260504023959 47 218 0.0 0.0 0.00 0.00 0.00 61 1012.8
20260504023455 47 218 0.0 0.0 0.00 0.00 0.00 61 1012.8
20260504022950 47 218 0.0 0.0 0.00 0.00 0.00 61 1012.8
20260504022447 47 240 0.0 0.0 0.00 0.00 0.00 61 1012.8
20260504021944 47 251 0.0 0.0 0.00 0.00 0.00 60 1012.8
20260504021441 47 251 0.0 0.0 0.00 0.00 0.00 60 1012.8
20260504020938 47 251 0.0 0.0 0.00 0.00 0.00 60 1012.8
20260504020435 47 251 0.0 0.0 0.00 0.00 0.00 60 1012.8
20260504015931 47 251 0.0 0.0 0.00 0.00 0.00 59 1012.8
20260504015427 48 293 0.0 0.0 0.00 0.00 0.00 59 1012.8
20260504014924 48 293 0.0 0.0 0.00 0.00 0.00 59 1012.8
20260504014420 48 293 0.0 0.0 0.00 0.00 0.00 58 1012.8
20260504013917 48 293 0.0 0.0 0.00 0.00 0.00 58 1012.8
20260504013416 49 259 0.0 0.0 0.00 0.00 0.00 59 1012.8
20260504012911 49 259 0.0 0.0 0.00 0.00 0.00 56 1012.8
20260504012409 49 223 0.0 0.0 0.00 0.00 0.00 57 1012.8
20260504011906 49 223 0.0 0.0 0.00 0.00 0.00 58 1012.8
20260504011403 49 221 0.0 0.0 0.00 0.00 0.00 57 1012.8
20260504010859 49 214 0.0 0.0 0.00 0.00 0.00 56 1012.8
20260504010355 49 216 0.0 0.0 0.00 0.00 0.00 55 1012.8
20260504005851 48 291 0.0 0.0 0.00 0.00 0.00 55 1012.8
20260504005348 48 248 0.0 0.0 0.00 0.00 0.00 57 1012.8
20260504004846 48 250 0.0 0.0 0.00 0.00 0.00 58 1012.8
20260504004343 49 250 0.0 0.0 0.00 0.00 0.00 57 1012.8
20260504003840 50 250 0.0 0.0 0.00 0.00 0.00 57 1011.7
20260504003337 50 250 0.0 0.0 0.00 0.00 0.00 53 1011.7
20260504002833 50 250 0.0 0.0 0.00 0.00 0.00 51 1011.7
20260504002330 50 250 0.0 0.0 0.00 0.00 0.00 51 1011.7
20260504001828 51 250 0.0 0.0 0.00 0.00 0.00 52 1011.7
20260504001325 51 250 0.0 0.0 0.00 0.00 0.00 52 1011.7
20260504000822 52 250 0.0 0.0 0.00 0.00 0.00 51 1011.7
20260504000319 52 244 0.0 0.0 0.00 0.00 0.00 51 1011.7
20260503235816 53 244 0.0 0.0 0.00 0.00 0.00 49 1011.7
20260503235314 54 242 0.0 0.0 0.00 0.00 0.00 48 1011.7
20260503234811 54 242 0.0 0.0 0.00 0.00 0.00 47 1011.7
20260503234309 54 248 0.0 0.0 0.00 0.00 0.00 44 1011.7
20260503233806 55 240 0.0 0.0 0.00 0.00 0.00 46 1011.7
20260503233302 55 239 0.0 0.0 0.00 0.00 0.00 45 1011.7
20260503232758 55 213 0.0 0.0 0.00 0.00 0.00 43 1011.7
20260503232256 56 303 0.0 0.0 0.00 0.00 0.00 46 1011.7
20260503231753 56 261 0.0 0.0 0.00 0.00 0.00 42 1011.7
20260503231245 56 260 0.0 0.0 0.00 0.00 0.00 42 1011.7
20260503230741 56 292 0.0 0.0 0.00 0.00 0.00 41 1011.7
20260503230238 56 259 0.0 0.0 0.00 0.00 0.00 43 1011.7
20260503225736 57 239 0.0 0.0 0.00 0.00 0.00 44 1011.7
20260503225236 57 251 0.0 0.0 0.00 0.00 0.00 41 1011.7
20260503224733 56 198 0.0 0.0 0.00 0.00 0.00 40 1011.7
20260503224231 56 21 0.0 0.0 0.00 0.00 0.00 43 1011.7
20260503223728 56 181 0.0 0.0 0.00 0.00 0.00 42 1011.7
20260503223226 56 242 6.1 9.6 0.00 0.00 0.00 42 1011.7
20260503222721 56 226 0.0 0.0 0.00 0.00 0.00 42 1011.7
20260503222220 57 241 0.0 0.0 0.00 0.00 0.00 44 1011.7
20260503221718 57 132 0.0 0.0 0.00 0.00 0.00 45 1011.7
20260503221215 57 225 0.0 0.0 0.00 0.00 0.00 42 1011.7
20260503220711 57 317 0.9 7.0 0.00 0.00 0.00 41 1011.7
20260503220209 57 238 0.0 0.0 0.00 0.00 0.00 43 1011.7
20260503215705 57 240 0.0 0.0 0.00 0.00 0.00 41 1011.7
20260503215202 57 260 0.0 0.0 0.00 0.00 0.00 43 1011.7
20260503214700 58 286 0.0 0.0 0.00 0.00 0.00 41 1011.7
20260503214155 57 347 0.0 0.0 0.00 0.00 0.00 40 1011.7
20260503213650 58 330 0.0 0.0 0.00 0.00 0.00 41 1010.6
20260503213146 58 314 0.0 0.0 0.00 0.00 0.00 40 1010.6
20260503212643 58 226 0.0 0.0 0.00 0.00 0.00 39 1010.6
20260503212141 58 305 0.0 0.0 0.00 0.00 0.00 38 1010.6
20260503211638 58 27 0.0 0.0 0.00 0.00 0.00 40 1011.7
20260503211133 58 332 0.0 0.0 0.00 0.00 0.00 41 1011.7
20260503210630 57 209 0.0 0.0 0.00 0.00 0.00 41 1011.7
20260503210127 57 250 0.0 0.0 0.00 0.00 0.00 43 1010.6
20260503205623 57 51 0.0 0.0 0.00 0.00 0.00 39 1010.6
20260503205119 57 258 0.0 0.0 0.00 0.00 0.00 41 1010.6
20260503204616 57 0 0.0 0.0 0.00 0.00 0.00 38 1011.7
20260503204114 58 252 0.0 0.0 0.00 0.00 0.00 41 1011.7
20260503203610 58 252 0.0 0.0 0.00 0.00 0.00 41 1011.7
20260503203108 59 31 0.0 0.0 0.00 0.00 0.00 36 1011.7
20260503202605 58 329 0.0 0.0 0.00 0.00 0.00 38 1011.7
20260503202103 56 199 0.0 0.0 0.00 0.00 0.00 40 1011.7
20260503201601 56 223 0.0 1.7 0.00 0.00 0.00 40 1011.7
20260503201058 57 235 0.0 0.0 0.00 0.00 0.00 40 1011.7
20260503200554 57 225 0.0 0.0 0.00 0.00 0.00 42 1011.7
20260503200051 57 246 0.0 0.0 0.00 0.00 0.00 41 1011.7
20260503195548 58 202 0.0 0.0 0.00 0.00 0.00 38 1011.7
20260503195044 59 143 0.0 0.0 0.00 0.00 0.00 38 1011.7
20260503194542 59 263 0.0 0.0 0.00 0.00 0.00 41 1011.7
20260503194041 58 226 0.0 0.0 0.00 0.00 0.00 38 1011.7
20260503193539 58 148 0.0 0.0 0.00 0.00 0.00 39 1011.7
20260503193033 58 248 0.0 0.0 0.00 0.00 0.00 35 1011.7
20260503192530 58 196 0.0 0.0 0.00 0.00 0.00 35 1011.7
20260503192026 58 357 0.0 0.0 0.00 0.00 0.00 35 1011.7
20260503191523 59 36 0.0 0.0 0.00 0.00 0.00 34 1011.7
20260503191020 59 251 0.0 0.0 0.00 0.00 0.00 35 1011.7